Weather in Subbotino

Russia / Krasnoyarsk Krai     53°04′18″N   91°55′16″E
temp.,
°C
wind,
m/s
gust,
m/s
humid.,
%
clouds,
%
prec.,
mm/h
press.,
hPa
HPBL,
m
14 may, fri
fri1401:00+7s3251100 0.0 101438
04:00+6s3254100 0.0 101438
07:00+9ssw2253100 0.0 101467
10:00+16nw112952 0.0 10121111
13:00+18n443124 0.0 10122226
16:00+13wnw136279 0.9 1013531
19:00+9n3486100 1.8 1017570
22:00+8ssw1190100 5.3 1021139
15 may, sat
sat1501:00+7w1189100 6.4 102352
04:00+7ssw1190100 0.1 102322
07:00+8ssw1286100 0.2 1023143
10:00+12w375282 0.0 10231692
13:00+16w464069 0.0 10211931
16:00+17wnw4745100 0.0 10202133
19:00+12w2769100 0.0 1021375
22:00+12s337071 0.0 102164
16 may, sun
sun1601:00+11s3471100 0.0 102088
04:00+11s347195 0.0 101995
07:00+12s356695 0.0 1018140
10:00+16w3747100 0.0 10171530
13:00+15wsw2658100 0.2 1017893
16:00+16ssw386252 0.2 1014929
19:00+17sw39596 0.2 1012948
22:00+11s4685100 0.5 101289
17 may, mon
mon1701:00+11s2394100 3.4 101263
04:00+11s3493100 1.4 101091
07:00+11sw2494100 4.0 1010105
10:00+11nw2798100 4.7 1011535
13:00+10n2399100 14.3 1013278
16:00+9nw1198100 4.4 1014128
19:00+10s1196100 5.3 101567
22:00+9wsw1197100 0.3 101617
18 may, tue
tue1801:00+10ssw119539 0.7 101420
04:00+9ssw1192100 0.6 101321
07:00+11ssw238899 0.9 1011101
10:00+10ssw3890100 2.7 1010313
13:00+12sw31385100 3.8 10071108
16:00+13wsw31185100 2.5 1006910
19:00+13w5148484 7.3 10051199
22:00+10sse119573 2.8 100941